Weather History for Lanai City, HI

Change the Weather History Date:

Wednesday, May 7, 2014

  Actual Average Record
Temperature  
Mean Temperature 76 °F -  
Max Temperature 87 °F 78 °F 87 °F (2014)
Min Temperature 65 °F 62 °F 59 °F (1990)
Cooling Degree Days 11    
Growing Degree Days 26 (Base 50)    
Moisture  
Dew Point 68 °F    
Average Humidity 84    
Maximum Humidity 100    
Minimum Humidity 55    
Precipitation  
Precipitation 0.00 in - - ()
Sea Level Pressure  
Sea Level Pressure 30.11 in    
Wind  
Wind Speed 5 mph (NW)    
Max Wind Speed 10 mph    
Max Gust Speed 16 mph    
Visibility 8 miles    
Events Fog , Rain    
Averages and records for this station are not official NWS values.
T = Trace of Precipitation, MM = Missing Value Source: NWS Daily Summary

Daily Weather History Graph

Daily Weather History Graph

Search for Another Location

Airport:

Trip Planner

Search our weather history database for the weather conditions in past years. The results will help you decide how hot, cold, wet, or windy it might be!

Date:

Astronomy

May. 07, 2014 Rise Set
Actual Time 5:54 AM HST 6:54 PM HST
Civil Twilight 5:30 AM HST 7:18 PM HST
Nautical Twilight 5:02 AM HST 7:46 PM HST
Astronomical Twilight 4:34 AM HST 8:14 PM HST
Moon 1:00 PM HST (5/7) 1:06 AM HST (5/7)
Length of Visible Light 13h 47m
Length of Day
13h 00m
First Quarter, 57% of the Moon is Illuminated
May 7
First Quarter
May 14
Full
May 21
Last Quarter
May 28
New
Jun 5
First Quarter

Hourly Weather History & Observations

Time (HST) Temp. Heat Index Dew Point Humidity Pressure Visibility Wind Dir Wind Speed Gust Speed Precip Events Conditions
12:56 AM 68.0 °F - 66.9 °F 96% 30.07 in 10.0 mi NW 3.5 mph - N/A   Clear
1:56 AM 65.8 °F - 65.8 °F 100% 30.06 in 10.0 mi North 6.9 mph - N/A   Clear
2:56 AM 66.9 °F - 65.8 °F 96% 30.06 in 10.0 mi NNW 4.6 mph - N/A   Scattered Clouds
3:56 AM 68.9 °F - 68.0 °F 97% 30.06 in 10.0 mi North 6.9 mph - N/A   Overcast
4:56 AM 68.9 °F - 68.0 °F 97% 30.08 in 10.0 mi North 4.6 mph - N/A   Overcast
5:56 AM 68.9 °F - 68.9 °F 100% 30.09 in 10.0 mi NW 6.9 mph - N/A   Overcast
6:04 AM 69.8 °F - 69.8 °F 100% 30.15 in 7.0 mi WNW 8.1 mph - N/A   Mostly Cloudy
6:07 AM 69.8 °F - 69.8 °F 100% 30.15 in 1.5 mi WNW 6.9 mph - N/A   Overcast
6:09 AM 69.8 °F - 69.8 °F 100% 30.15 in 0.8 mi WNW 8.1 mph - N/A   Overcast
6:17 AM 69.8 °F - 69.8 °F 100% 30.15 in 1.0 mi WNW 6.9 mph - N/A   Overcast
6:21 AM 69.8 °F - 69.8 °F 100% 30.15 in 0.8 mi NW 6.9 mph - N/A   Overcast
6:47 AM 68.0 °F - 68.0 °F 100% 30.15 in 0.5 mi WNW 3.5 mph - 0.00 in Fog , Rain Light Rain
6:56 AM 68.0 °F - 68.0 °F 100% 30.11 in 0.5 mi Calm Calm - 0.00 in Fog , Rain Light Rain
7:02 AM 68.0 °F - 68.0 °F 100% 30.16 in 1.0 mi West 3.5 mph - 0.00 in   Overcast
7:04 AM 68.0 °F - 68.0 °F 100% 30.16 in 1.5 mi West 3.5 mph - 0.00 in   Overcast
7:12 AM 68.0 °F - 68.0 °F 100% 30.16 in 3.0 mi Calm Calm - 0.00 in Rain Light Rain
7:21 AM 68.0 °F - 68.0 °F 100% 30.16 in 10.0 mi North 3.5 mph - 0.00 in   Overcast
7:56 AM 70.0 °F - 66.9 °F 90% 30.11 in 10.0 mi North 8.1 mph - 0.00 in   Overcast
8:56 AM 72.9 °F - 68.0 °F 85% 30.12 in 10.0 mi NNE 8.1 mph 16.1 mph N/A   Overcast
9:56 AM 79.0 °F - 65.8 °F 64% 30.10 in 10.0 mi North 5.8 mph - N/A   Overcast
10:10 AM 77.0 °F - 68.0 °F 74% 30.16 in 10.0 mi WNW 10.4 mph - N/A   Mostly Cloudy
10:50 AM 86.0 °F 95.1 °F 75.2 °F 70% 30.14 in 10.0 mi West 8.1 mph - N/A   Mostly Cloudy
10:56 AM 78.8 °F - 69.8 °F 74% 30.16 in 10.0 mi West 6.9 mph - N/A   Mostly Cloudy
11:20 AM 80.6 °F 83.9 °F 69.8 °F 70% 30.15 in 10.0 mi NW 3.5 mph - N/A   Mostly Cloudy
11:56 AM 81.9 °F 84.8 °F 68.0 °F 63% 30.09 in 10.0 mi Variable 5.8 mph - N/A   Mostly Cloudy
12:03 PM 82.4 °F 85.4 °F 68.0 °F 62% 30.15 in 10.0 mi WNW 4.6 mph - N/A   Mostly Cloudy
12:35 PM 78.8 °F - 66.2 °F 65% 30.14 in - SW 3.5 mph - 0.00 in   Overcast
12:50 PM 80.6 °F 82.7 °F 66.2 °F 61% 30.14 in 10.0 mi Variable 3.5 mph - N/A   Mostly Cloudy
12:56 PM 77.9 °F - 66.9 °F 69% 30.08 in - West 6.9 mph - 0.00 in Rain Rain
1:33 PM 82.4 °F 84.6 °F 66.2 °F 58% 30.13 in 10.0 mi West 8.1 mph - 0.00 in   Overcast
1:50 PM 87.8 °F 92.6 °F 69.8 °F 55% 30.12 in 10.0 mi WNW 10.4 mph - N/A   Mostly Cloudy
1:56 PM 82.4 °F 84.6 °F 66.2 °F 58% 30.12 in 9.0 mi West 6.9 mph - N/A   Overcast
2:50 PM 78.8 °F - 68.0 °F 69% 30.10 in 10.0 mi WNW 5.8 mph - N/A   Overcast
2:56 PM 79.9 °F - 66.9 °F 64% 30.05 in 8.0 mi WNW 6.9 mph - N/A   Unknown
3:48 PM 77.0 °F - 66.2 °F 69% 30.11 in 10.0 mi NNW 6.9 mph - N/A Rain Light Rain
3:55 PM 77.0 °F - 69.8 °F 78% 30.09 in 10.0 mi ESE 5.8 mph - N/A   Mostly Cloudy
3:56 PM 75.9 °F - 68.0 °F 76% 30.04 in 8.0 mi NNW 6.9 mph - N/A Rain Light Rain
4:09 PM 77.0 °F - 66.2 °F 69% 30.10 in 10.0 mi NW 8.1 mph - 0.00 in   Overcast
4:50 PM 77.0 °F - 62.6 °F 61% 30.10 in 10.0 mi ESE 5.8 mph - N/A   Mostly Cloudy
4:56 PM 78.8 °F - 66.2 °F 65% 30.10 in 8.0 mi WNW 6.9 mph - N/A   Overcast
5:56 PM 75.9 °F - 66.9 °F 74% 30.05 in 10.0 mi WNW 4.6 mph - 0.00 in Rain Light Rain
6:02 PM 75.2 °F - 66.2 °F 73% 30.11 in 10.0 mi WNW 5.8 mph - 0.00 in Rain Light Rain
6:19 PM 71.6 °F - 69.8 °F 94% 30.12 in 4.0 mi Calm Calm - 0.00 in Rain Light Rain
6:36 PM 71.6 °F - 69.8 °F 94% 30.12 in 8.0 mi Calm Calm - 0.00 in   Mostly Cloudy
6:47 PM 71.6 °F - 71.6 °F 100% 30.12 in 9.0 mi Calm Calm - 0.00 in   Overcast
6:56 PM 72.0 °F - 70.9 °F 96% 30.07 in 8.0 mi Calm Calm - 0.00 in   Overcast
7:56 PM 70.9 °F - 68.0 °F 91% 30.09 in 10.0 mi ESE 3.5 mph - 0.00 in   Mostly Cloudy
8:19 PM 71.6 °F - 68.0 °F 88% 30.15 in 10.0 mi Calm Calm - N/A   Overcast
8:56 PM 70.9 °F - 66.9 °F 87% 30.11 in 10.0 mi Calm Calm - N/A   Overcast
9:56 PM 70.0 °F - 66.9 °F 90% 30.11 in 10.0 mi Calm Calm - N/A   Overcast
10:56 PM 68.9 °F - 68.0 °F 97% 30.11 in 9.0 mi Calm Calm - N/A   Clear
11:34 PM 66.2 °F - 66.2 °F 100% 30.16 in 10.0 mi Calm Calm - N/A   Scattered Clouds
11:56 PM 70.0 °F - 70.0 °F 100% 30.09 in 6.0 mi Calm Calm - N/A   Overcast